Theta_e
287 286 287 289 290 289 289 288 288 286 287 286 285 286 288 285 283 282 286 286 284 285 287 288 288 288 289 290 291 294 294 294 293 294 294 294 294 294 294 294 294 294 294 293 292 291 291 290 290 289 289 288 288 287 287 287 288 288 287 288 287 287 287 287 286 285 285 284 284 284 284 284 284 284 283 281 281 281 281 281 283 282 282 282 282 282 282
286 287 287 288 289 287 287 287 288 289 288 287 288 288 290 288 286 288 288 287 286 288 286 288 288 288 289 289 290 292 293 294 295 295 295 295 294 294 294 294 295 295 294 293 292 292 291 291 290 290 289 289 288 288 288 287 288 286 287 287 287 286 286 286 285 284 285 284 284 284 284 283 282 281 281 281 281 280 281 280 280 281 281 281 281 281 282
283 285 286 286 287 286 285 286 287 288 288 288 289 289 289 288 286 287 286 284 285 290 290 289 290 289 287 289 291 294 295 294 294 295 295 295 295 295 295 295 295 295 294 293 292 291 291 290 290 290 290 289 288 287 287 287 287 286 286 286 286 286 285 284 284 284 284 284 283 283 281 281 280 280 281 280 280 280 280 280 280 280 280 280 280 280 281
280 282 283 284 282 283 284 284 285 286 287 285 287 286 289 286 285 286 285 284 285 290 290 292 290 289 289 289 290 292 293 294 294 295 295 295 295 295 295 295 295 294 293 293 292 292 291 290 290 290 289 288 288 288 287 287 287 286 286 286 285 285 284 284 284 284 283 283 282 281 281 280 280 280 279 278 279 279 279 279 279 279 279 280 280 279 280
278 281 281 281 282 283 281 283 286 288 288 289 289 290 288 289 290 286 284 286 291 290 291 292 289 288 289 289 289 291 292 294 295 295 295 295 296 296 296 295 295 295 294 294 293 292 291 290 290 290 290 289 288 288 287 287 286 286 285 285 285 285 284 284 283 283 282 282 281 281 280 279 279 279 277 277 276 277 277 279 279 279 279 279 279 279 279
281 280 281 282 281 277 279 289 291 290 288 288 286 286 289 290 289 288 291 291 291 289 288 291 289 288 290 292 292 294 295 294 293 295 295 296 296 296 296 296 296 295 295 294 293 292 291 291 291 290 289 289 288 287 287 286 286 286 285 285 284 284 283 283 283 282 282 281 281 280 279 279 278 278 276 278 277 277 277 278 278 278 277 278 279 279 279
280 281 282 280 276 278 288 289 292 294 292 291 289 290 291 291 291 291 290 289 289 288 290 292 292 292 292 291 292 292 291 294 295 295 295 295 295 296 295 295 295 295 294 293 291 291 291 291 289 288 287 287 287 286 286 286 286 285 285 284 283 283 283 282 282 281 281 280 280 279 278 277 276 276 277 276 276 276 276 277 277 278 278 277 279 277 278
281 279 280 276 278 285 286 286 288 290 292 291 289 288 290 289 289 290 290 292 293 292 290 291 290 289 289 289 287 290 291 293 295 295 295 296 296 295 296 296 296 295 293 293 292 292 290 289 288 288 287 287 287 286 286 286 285 285 284 284 283 282 282 282 281 280 280 279 279 278 278 276 275 275 275 275 275 276 276 276 276 276 276 276 277 277 277
280 279 280 280 284 285 287 286 285 288 286 285 288 284 288 292 292 291 292 292 293 293 291 290 288 287 287 288 291 290 289 290 293 296 297 297 297 297 297 297 297 296 295 293 291 289 288 289 288 288 287 287 286 286 285 285 284 284 283 283 282 282 281 281 280 279 279 278 277 276 276 275 273 274 274 274 275 275 275 275 275 275 275 275 276 276 275
283 277 276 277 278 277 284 289 287 291 290 292 292 288 286 291 292 293 293 292 293 292 289 288 287 288 289 287 289 292 289 291 294 294 293 294 294 293 291 291 292 292 291 290 289 289 288 288 288 287 286 286 286 286 285 284 283 283 282 282 281 281 280 279 279 278 278 277 275 274 273 273 274 274 274 273 273 274 274 275 274 275 275 275 274 274 274
281 277 277 276 276 281 286 286 289 291 291 292 289 285 284 288 290 292 293 293 293 291 289 288 286 288 286 287 292 291 288 290 290 291 291 290 291 292 293 294 292 291 290 289 288 288 288 287 286 286 286 286 285 285 284 284 283 282 281 280 280 279 279 278 277 277 276 276 275 273 272 272 273 272 272 273 274 273 273 272 274 274 275 274 274 273 273
280 281 279 277 277 282 283 287 286 290 291 293 289 277 282 286 289 292 292 292 293 291 291 289 289 289 286 289 291 288 287 288 288 289 291 289 288 288 289 290 292 290 288 287 287 287 287 287 286 286 285 285 284 284 283 283 282 281 280 279 279 278 277 277 277 276 275 274 273 272 271 271 271 272 273 274 273 272 272 272 272 272 272 272 273 274 274
280 282 275 276 280 283 281 283 286 286 292 291 282 278 285 287 287 287 289 291 293 290 287 288 288 291 292 290 288 285 285 286 286 284 284 284 286 288 288 288 288 288 288 289 288 288 288 287 286 285 285 284 283 283 282 281 280 279 278 278 277 277 277 276 275 275 274 273 271 271 272 272 273 274 273 272 271 269 270 271 270 271 272 273 273 274 274
279 278 276 277 278 282 285 285 286 288 289 280 281 286 286 285 286 286 286 287 287 288 288 288 291 289 284 285 283 284 284 284 282 283 284 285 284 284 284 286 287 287 287 286 285 285 285 285 285 284 284 283 282 282 281 279 278 277 277 277 277 276 275 274 274 273 272 271 271 271 272 272 271 270 270 269 269 269 269 269 270 271 271 272 273 273 273
277 275 275 276 275 282 288 289 287 287 285 282 282 283 284 286 286 286 287 286 288 287 288 288 288 284 284 284 283 283 283 284 284 284 284 285 285 285 285 285 284 286 285 284 284 283 283 283 283 283 283 282 281 280 279 276 276 276 276 276 276 275 274 274 273 271 270 271 271 271 270 270 269 268 268 268 268 269 269 269 270 270 271 271 271 272 272
278 278 277 278 283 286 290 292 287 286 285 288 286 285 287 285 284 285 286 287 287 284 287 286 283 283 284 283 283 283 283 283 283 282 283 283 283 284 283 284 284 284 283 282 280 279 279 280 281 281 282 281 279 278 275 276 275 275 275 275 275 274 274 272 271 270 270 270 269 268 268 268 267 267 267 267 267 268 269 269 269 269 270 270 270 271 271
282 280 284 284 283 286 287 286 288 288 287 283 282 283 284 286 287 284 286 288 287 283 285 285 285 284 283 283 284 285 284 284 284 284 284 284 285 284 284 283 282 282 281 279 278 277 276 276 277 278 278 279 277 275 275 275 275 275 274 274 273 272 271 270 269 267 267 267 267 266 266 266 266 267 266 267 267 266 268 268 268 268 268 269 269 269 270
287 284 285 284 282 285 287 285 285 285 285 283 284 285 287 284 285 285 286 287 286 284 286 287 284 285 285 284 284 283 283 284 283 282 282 282 282 281 281 281 280 279 278 277 276 275 274 273 275 275 277 278 276 274 275 275 275 274 273 272 271 270 269 268 266 266 266 267 267 266 266 266 266 266 267 267 267 267 267 265 264 266 267 268 268 268 269
286 283 286 285 287 285 285 286 284 284 284 284 283 284 284 285 284 284 284 285 286 285 284 286 287 285 284 285 284 283 284 284 283 283 283 282 282 281 281 279 278 277 276 275 274 274 273 271 272 273 273 273 274 274 274 274 273 272 271 270 270 269 268 268 266 266 265 265 265 265 264 265 265 266 266 266 265 266 265 264 264 265 265 267 268 268 269
286 284 284 283 282 283 282 282 283 284 284 284 284 284 284 283 283 283 282 283 285 285 286 283 284 284 284 284 284 284 284 284 283 283 282 281 280 280 279 278 277 276 276 275 273 273 272 271 271 271 272 272 273 274 274 273 271 270 270 269 268 267 266 266 266 265 265 270 267 264 264 264 265 265 264 264 264 264 265 264 264 264 265 266 267 268 268
282 283 284 282 284 285 282 281 281 282 283 283 283 283 283 283 285 284 283 282 283 284 285 284 282 283 283 284 284 284 283 282 282 282 281 281 280 279 278 277 277 277 276 274 273 272 271 270 270 271 271 272 272 272 271 270 270 269 269 269 268 267 266 266 266 267 264 263 263 263 263 262 264 264 264 263 264 263 265 264 263 265 265 267 267 266 267
283 284 283 285 286 282 282 282 282 282 283 284 284 283 284 283 283 283 283 284 282 282 282 283 282 283 282 282 282 282 283 282 282 280 280 279 279 278 278 277 276 276 274 274 272 271 270 270 270 271 270 270 270 270 269 269 269 268 268 268 266 266 266 265 264 264 263 262 263 263 262 262 263 264 269 272 270 267 264 273 275 276 276 269 270 269 269
284 283 282 283 285 283 282 283 283 283 284 284 285 285 284 284 284 284 283 283 283 283 282 282 283 282 282 281 281 281 281 282 282 281 280 279 278 278 277 276 275 275 274 272 271 270 269 269 270 270 269 269 268 268 268 269 268 268 268 267 267 266 265 263 264 263 261 262 262 262 262 262 262 263 262 264 271 273 274 273 273 274 275 276 275 275 272
282 283 282 283 283 283 283 283 282 282 283 284 284 284 285 285 285 285 284 283 284 283 282 283 282 283 281 281 282 282 279 279 279 279 278 278 278 277 276 277 275 274 272 271 270 269 269 269 269 269 268 267 267 267 267 267 267 266 267 267 266 264 263 263 265 264 262 263 262 261 261 262 262 261 261 259 261 269 271 270 272 273 274 274 273 273 274
284 284 283 284 284 283 283 283 283 283 283 283 283 282 283 284 284 284 285 283 281 283 283 284 283 282 282 280 282 282 281 279 279 279 277 276 276 275 274 274 273 273 272 271 270 268 268 268 269 268 266 265 265 265 265 265 266 265 265 264 263 262 262 263 263 264 263 262 262 261 261 261 261 261 259 259 259 259 263 269 271 272 272 272 272 272 273
286 283 283 283 283 283 284 283 283 282 282 283 282 281 282 282 282 282 281 280 278 276 279 278 279 279 280 279 279 278 277 277 277 277 276 275 273 272 273 273 273 271 271 269 268 267 267 268 267 266 265 264 264 263 263 264 263 262 262 261 261 261 262 262 261 261 262 261 261 261 261 261 260 259 259 259 258 259 259 259 261 266 269 270 270 271 271
285 285 286 285 284 284 284 284 284 284 283 282 283 282 280 280 278 277 276 275 276 274 276 275 274 275 276 276 276 276 279 274 273 276 275 274 273 274 272 270 269 269 268 267 266 266 267 266 265 264 263 262 262 261 261 261 260 259 259 259 259 263 264 263 261 262 262 263 262 261 260 259 259 259 259 259 261 260 259 259 259 259 258 260 266 269 268
286 284 284 284 282 283 283 284 283 283 282 282 281 279 278 277 277 277 275 275 274 273 272 270 274 276 277 275 274 273 272 274 276 275 274 274 272 269 268 267 267 266 266 265 265 265 265 265 264 263 262 261 261 260 260 259 259 258 259 260 261 262 262 263 262 262 262 261 262 261 261 259 259 258 260 260 260 259 260 260 259 259 259 259 261 266 268
283 283 282 283 284 283 283 282 282 281 280 278 277 277 278 278 275 275 275 275 274 272 273 271 270 271 273 272 273 274 273 273 273 274 274 271 268 267 267 266 265 265 264 264 264 265 264 263 262 261 261 261 260 259 259 258 258 259 259 260 261 262 263 263 263 262 262 261 261 261 263 261 259 259 259 259 260 259 258 257 258 258 259 260 260 260 264
281 281 281 280 280 281 282 280 280 280 279 278 278 277 275 277 277 277 276 275 272 274 276 272 270 271 271 271 272 274 275 274 274 271 270 268 266 265 265 265 264 262 262 263 264 264 263 262 262 261 261 260 259 258 258 258 259 259 260 261 262 262 262 262 262 262 261 260 260 263 260 260 259 257 258 258 258 259 258 257 259 259 258 259 261 260 260
278 278 278 278 278 279 280 279 278 277 277 274 275 274 273 273 275 275 276 276 273 274 274 272 270 269 269 273 272 271 271 269 269 268 267 266 264 265 265 265 266 266 265 265 264 263 262 262 261 261 261 260 259 258 258 259 259 260 260 261 262 262 263 263 262 260 260 260 259 258 257 258 257 258 258 258 257 257 256 256 255 256 257 257 258 259 259
279 278 277 277 276 276 276 275 276 275 275 272 272 273 275 274 275 275 275 274 276 275 273 270 269 272 273 270 270 269 267 265 264 264 264 264 264 264 264 265 268 265 264 263 263 262 261 261 260 260 260 259 259 259 259 259 260 259 260 261 260 261 263 263 262 262 261 261 259 258 258 256 254 256 256 257 256 256 256 255 255 256 256 257 258 258 259
278 277 278 277 276 275 275 272 273 275 272 271 275 277 275 273 273 275 276 276 275 273 273 273 274 272 269 267 266 265 263 262 262 263 263 263 264 263 263 263 263 261 260 262 262 262 261 261 261 260 259 259 259 259 259 260 260 260 260 261 261 262 263 263 262 262 261 260 258 256 255 256 256 254 254 257 257 257 256 256 256 257 257 257 257 257 260
280 281 281 278 279 279 278 278 274 274 274 273 272 271 271 272 272 272 273 272 272 272 274 275 273 270 266 266 266 264 263 264 265 265 265 264 263 262 262 262 261 259 259 259 261 261 261 261 261 260 260 260 259 259 260 260 260 261 261 261 261 261 261 261 261 259 257 258 257 260 257 258 255 255 256 257 256 256 257 257 258 257 256 256 256 257 261
280 280 279 278 278 278 278 277 274 273 272 272 272 269 271 271 270 272 272 272 272 275 273 272 269 266 265 264 264 265 265 269 271 271 268 265 263 261 260 260 259 258 258 259 261 261 262 261 261 260 260 260 260 260 260 260 260 260 260 261 260 260 259 258 258 258 257 256 256 254 254 254 255 259 259 257 255 257 257 257 257 257 256 256 256 257 258
275 276 275 273 273 274 274 274 274 274 273 271 272 271 270 269 269 269 270 270 270 270 270 269 263 263 263 263 265 265 265 267 268 268 267 265 263 261 260 259 259 259 259 259 261 261 261 262 261 261 260 260 260 260 260 260 260 260 259 260 260 260 259 260 259 258 257 255 255 256 255 257 257 257 257 256 256 255 254 254 255 256 256 255 256 256 256
272 274 272 271 270 270 271 273 274 274 274 273 272 271 271 269 269 268 267 266 267 267 268 263 261 263 266 266 268 267 267 268 268 268 266 263 261 260 260 259 259 259 259 260 262 261 261 262 261 260 260 260 260 260 260 260 259 259 260 259 259 259 259 259 259 258 256 256 257 255 257 257 255 254 257 255 255 254 255 254 256 256 255 256 256 256 256
267 267 267 267 266 267 268 268 268 267 268 267 268 268 268 267 266 264 264 264 264 266 265 263 267 268 266 263 263 265 267 265 264 263 260 260 260 260 259 259 259 260 259 262 262 261 261 261 260 260 260 260 259 259 259 259 259 259 258 259 259 259 259 258 257 256 256 254 257 255 254 253 252 251 253 253 252 254 255 255 256 255 255 255 255 255 256
264 264 264 263 263 263 263 264 264 263 264 263 263 264 263 263 263 263 265 265 265 264 264 264 261 262 262 263 265 264 263 262 261 261 260 259 259 261 261 262 262 263 263 260 260 260 260 260 260 260 259 260 260 259 259 259 259 259 259 258 258 259 259 258 257 257 257 256 254 253 252 253 253 253 253 252 252 254 256 256 255 256 255 254 254 254 254
261 260 260 260 260 261 261 262 261 261 260 259 260 261 261 261 260 260 261 262 263 263 262 261 262 265 265 264 264 265 265 262 261 260 259 258 257 258 260 260 260 261 260 260 260 259 260 260 260 259 259 260 259 259 259 259 259 259 259 258 258 259 259 258 257 258 258 256 255 258 254 255 254 254 255 254 254 254 253 254 254 254 253 253 252 252 254
259 259 258 258 258 258 257 259 259 259 258 258 257 257 258 257 258 258 260 261 261 261 261 262 264 265 266 266 266 266 261 259 259 259 258 256 256 258 258 261 260 260 260 259 259 259 260 259 259 258 259 260 259 259 259 260 259 259 258 258 259 259 259 258 258 258 258 257 256 255 255 254 254 254 254 253 253 253 253 253 253 253 251 252 252 252 252
256 257 256 257 257 257 256 256 256 257 257 257 256 253 254 255 256 257 258 257 258 258 259 260 261 263 263 260 260 260 258 256 256 257 258 260 260 259 258 261 256 258 260 259 259 259 259 259 259 259 259 259 259 259 259 260 259 258 258 258 259 259 258 258 258 258 258 257 257 256 255 254 254 253 254 254 253 253 252 252 251 251 250 251 252 252 251
255 255 255 255 255 255 254 255 255 255 255 256 254 254 254 254 255 255 254 256 256 257 257 258 259 259 259 258 259 260 259 254 255 255 256 258 258 256 261 255 254 256 259 259 258 258 258 258 258 258 259 259 259 259 259 259 259 258 258 258 259 258 258 258 258 258 257 256 256 255 255 255 255 255 254 254 253 252 251 251 252 251 252 250 250 250 251
254 254 254 254 253 253 253 254 255 255 255 256 255 255 255 253 252 252 253 254 254 255 256 256 257 257 257 256 257 259 259 254 255 254 255 256 257 256 252 252 254 257 258 258 258 257 257 258 258 258 259 259 259 259 259 259 259 258 258 258 258 258 258 258 258 257 257 256 256 256 255 255 255 254 253 253 253 251 251 251 250 250 251 250 250 250 250
251 250 251 251 251 252 252 254 253 253 254 254 254 255 255 252 252 251 251 252 253 254 255 255 255 256 256 256 257 258 257 256 257 257 256 257 256 258 254 255 256 257 257 258 257 257 257 257 258 259 259 259 259 259 259 258 258 257 258 258 258 257 257 257 257 257 257 256 256 256 255 255 255 255 254 253 254 253 252 252 252 251 252 251 250 250 249
249 250 249 251 250 250 251 251 252 251 252 253 254 254 253 250 250 251 250 251 252 254 255 254 254 255 255 255 255 253 252 253 254 256 256 256 259 256 255 255 255 257 258 258 256 257 257 258 258 259 259 259 259 259 258 258 258 258 257 257 257 256 256 256 257 256 256 256 256 256 255 255 254 254 253 253 252 252 252 253 253 252 250 251 249 250 250
248 249 249 248 249 249 249 249 250 252 252 253 253 254 252 250 249 249 250 249 248 249 249 252 254 255 257 255 256 256 256 256 255 255 254 253 255 256 257 257 257 257 257 257 257 257 258 258 258 258 258 258 258 258 258 258 258 257 257 256 256 256 256 256 256 256 256 256 256 255 255 254 254 253 252 253 252 252 251 251 251 251 250 251 250 252 252
248 248 249 248 248 249 248 248 249 250 249 251 251 252 252 249 248 248 248 249 250 249 250 251 253 254 255 255 256 256 256 257 256 256 256 254 255 256 257 257 257 257 257 258 258 258 258 258 258 258 258 258 258 257 257 257 257 257 256 256 255 255 255 255 255 255 255 255 255 254 254 253 253 252 251 251 252 251 251 250 251 250 249 249 249 249 248
246 246 247 247 247 246 247 249 250 251 250 250 249 251 251 250 249 250 250 249 248 248 248 248 248 251 253 253 253 253 254 255 257 257 257 255 256 256 256 256 257 257 257 257 256 257 257 257 257 257 257 257 257 256 256 256 256 256 256 255 255 255 255 255 254 254 254 254 254 254 253 253 252 251 251 251 251 250 251 251 251 249 249 248 249 250 250
247 246 247 248 247 248 248 248 248 248 249 249 250 250 249 249 250 251 249 247 247 250 247 247 248 249 251 252 253 252 253 254 256 257 256 256 256 255 255 255 256 256 257 256 256 256 256 256 256 256 256 256 256 256 256 256 256 255 255 255 255 254 254 254 254 254 253 253 253 253 253 253 252 252 252 250 251 251 251 251 249 252 253 253 251 250 249
247 247 247 248 248 248 246 246 248 249 248 249 248 249 250 249 250 251 249 249 248 249 249 249 249 250 250 251 251 252 253 254 254 255 256 255 255 255 255 255 255 255 255 255 255 255 255 255 255 255 255 255 255 255 255 255 255 255 255 254 254 254 254 254 254 253 253 253 253 253 253 252 252 251 251 251 251 251 251 250 250 249 248 249 249 249 249
247 247 247 247 246 246 247 247 247 246 245 247 247 248 248 250 250 250 248 253 249 249 249 248 248 248 248 248 250 250 252 253 254 254 255 254 254 254 254 254 254 254 255 255 255 255 255 254 254 254 254 254 254 254 254 254 254 254 254 254 253 253 253 253 253 253 253 253 253 252 252 252 251 251 251 250 250 250 250 250 249 248 249 248 249 249 249
Wind_Speed
2 4 6 10 9 12 13 14 13 11 10 7 10 9 11 6 8 13 11 8 7 7 7 8 9 9 10 11 12 10 6 5 5 8 10 10 10 10 10 11 10 10 11 10 10 10 9 9 9 9 8 7 5 5 5 6 7 7 7 8 8 8 7 8 6 5 5 4 4 5 5 5 6 5 5 4 3 3 3 3 2 2 2 2 3 4 3
3 1 5 9 10 5 5 9 12 13 13 14 15 15 14 13 11 14 16 11 13 7 6 9 7 8 7 3 2 3 5 9 10 9 9 11 11 13 14 13 12 11 10 10 11 11 10 11 11 10 8 8 7 8 7 6 7 6 7 7 9 8 8 7 6 5 6 5 5 5 6 5 4 4 3 3 3 3 4 3 3 3 3 3 3 3 4
1 1 4 2 6 6 7 6 8 10 11 13 15 15 14 9 8 8 5 5 11 8 8 6 6 1 2 3 6 9 10 8 9 11 12 12 13 14 11 10 11 11 10 10 10 12 12 11 11 10 9 9 8 7 7 7 7 6 7 8 7 8 7 5 6 5 6 5 5 6 4 4 3 3 3 3 3 4 4 3 3 3 3 3 4 3 4
1 4 2 2 4 3 3 4 6 9 12 12 12 12 11 7 10 11 8 10 13 8 7 7 5 5 7 9 10 9 5 9 11 12 13 13 13 13 12 12 11 11 13 14 14 14 13 11 11 10 10 9 9 9 8 8 7 7 7 7 8 7 6 6 5 5 5 5 5 4 4 4 3 3 3 4 4 4 3 3 4 3 3 3 4 4 4
1 3 0 2 3 1 4 8 14 19 16 14 10 9 7 10 14 12 11 16 15 4 6 8 3 5 8 8 7 7 6 8 13 15 15 15 14 14 14 13 14 15 17 17 15 12 11 12 12 12 12 12 11 10 9 8 8 8 7 8 8 7 6 6 5 5 5 5 4 4 4 3 3 4 4 4 3 3 3 3 3 3 4 4 4 4 3
1 3 1 1 3 6 14 5 4 9 11 11 7 8 13 12 8 9 12 15 6 2 5 9 6 9 9 11 12 11 13 11 9 11 11 13 15 13 12 13 15 14 10 9 10 12 12 12 11 10 9 10 10 8 9 8 9 8 9 7 7 7 6 6 5 5 5 5 4 4 3 4 4 4 3 3 3 3 3 3 3 4 4 4 4 4 4
2 1 5 1 5 12 4 1 8 12 10 12 17 17 17 16 14 12 11 9 6 6 8 10 10 11 10 7 9 8 7 9 13 16 15 14 13 12 13 13 12 13 14 11 10 11 12 12 10 10 8 8 9 9 8 9 7 9 7 8 7 7 7 5 5 5 5 4 4 4 4 4 4 3 2 2 3 3 3 3 4 4 5 4 5 4 4
4 3 4 6 14 7 3 4 3 2 6 9 8 9 7 5 7 11 14 17 15 10 10 8 5 3 6 4 5 8 8 9 11 11 13 15 13 14 15 17 16 14 15 18 19 16 10 11 10 10 11 10 11 10 7 9 9 8 8 8 7 6 6 5 5 4 5 4 4 4 4 4 3 2 2 2 3 3 3 3 3 3 4 4 5 5 4
8 5 9 10 6 9 7 6 3 8 7 5 8 9 12 14 12 14 16 19 16 10 7 7 3 0 1 1 8 7 7 7 8 13 16 16 16 18 16 15 16 16 13 11 10 10 10 11 12 11 11 11 11 11 10 8 9 8 8 8 7 7 6 5 5 4 4 5 4 4 3 3 2 1 2 3 3 3 3 4 4 4 4 4 4 4 4
6 6 2 0 4 10 17 7 1 5 5 7 8 7 11 6 11 14 14 15 15 11 6 6 4 4 3 6 9 9 7 10 12 12 5 1 3 4 4 5 6 9 9 9 10 13 12 11 9 9 10 11 12 12 10 9 10 9 8 8 7 7 6 5 5 4 4 5 4 4 3 2 1 1 2 2 3 2 3 4 4 4 4 4 4 4 4
5 3 7 6 8 14 5 7 8 7 7 10 7 3 13 7 10 10 14 16 14 8 7 6 5 5 6 10 12 6 5 8 5 5 5 3 5 7 9 13 13 12 12 14 13 12 13 13 11 11 12 12 12 12 11 10 9 10 9 8 8 7 6 5 5 5 5 4 4 4 3 1 1 1 2 3 3 3 4 4 5 5 4 4 4 4 4
7 9 8 9 5 9 3 6 5 11 9 11 8 1 13 1 13 15 15 14 13 10 12 9 10 10 8 12 10 3 4 3 2 4 6 5 4 4 5 5 10 12 13 13 12 15 16 16 13 13 12 12 11 12 11 10 10 10 9 7 7 6 6 6 5 5 4 4 4 3 1 1 1 2 2 3 3 3 4 4 4 4 3 3 4 5 4
4 8 4 2 6 4 3 5 2 4 9 11 8 15 6 2 4 1 2 9 11 6 5 8 8 12 7 2 0 1 2 5 4 4 3 3 3 7 8 10 11 12 13 16 19 19 14 13 13 12 12 12 12 10 11 10 10 8 7 7 7 7 6 6 5 4 4 4 3 2 0 0 1 2 2 3 4 3 3 3 3 3 4 5 5 6 5
8 6 5 8 5 8 6 1 7 6 7 6 14 5 0 5 4 1 4 4 4 5 10 8 10 4 1 1 2 3 3 4 3 4 4 6 7 5 4 7 10 10 9 8 7 7 7 12 12 12 12 12 11 11 10 9 8 6 7 7 7 6 6 5 5 5 4 3 1 0 0 0 1 2 3 3 3 3 2 2 4 6 5 6 7 8 6
3 2 3 1 9 3 6 9 2 3 7 6 3 2 0 1 2 4 1 2 2 5 6 8 5 4 2 2 3 3 3 4 4 4 5 7 8 9 10 7 5 10 10 9 9 8 7 8 8 9 11 12 10 9 10 8 7 7 7 7 7 6 6 5 4 4 3 2 0 0 1 1 1 2 3 2 2 1 1 3 5 7 7 7 7 9 9
8 8 8 9 6 4 6 11 11 6 6 1 3 5 4 1 2 2 3 1 1 3 5 6 4 3 5 3 3 4 3 3 3 3 4 4 5 5 4 5 9 8 9 8 9 6 6 5 6 6 10 12 10 10 9 6 7 7 7 6 7 7 6 5 4 3 2 1 1 0 0 1 2 3 2 1 1 2 3 5 6 7 6 6 7 8 10
6 7 9 7 3 4 1 3 1 1 2 2 5 3 3 4 0 1 4 2 0 3 7 6 7 3 2 4 5 7 7 6 7 7 7 6 7 8 9 8 6 7 12 13 10 8 5 5 4 6 6 12 12 12 8 7 7 8 7 7 7 7 6 5 4 2 1 1 0 0 1 1 2 1 1 1 2 2 4 6 6 5 5 5 6 7 8
2 2 4 1 0 2 0 3 1 2 2 3 4 5 7 3 1 0 3 3 3 4 6 9 1 5 7 7 6 4 5 5 4 3 4 4 4 5 6 6 6 7 8 8 10 10 6 3 5 4 6 9 15 10 8 7 7 7 8 8 8 6 6 4 4 3 2 1 0 0 1 1 0 1 1 1 2 4 6 6 4 5 5 5 6 6 7
8 8 4 4 6 4 2 3 4 5 4 2 2 5 4 3 2 3 1 2 1 3 3 4 6 5 6 7 5 4 5 6 5 6 6 5 6 9 10 8 10 10 10 10 10 9 9 3 4 5 6 5 6 8 8 8 7 7 8 8 8 6 5 5 3 3 3 2 2 1 1 0 0 0 1 1 4 5 4 4 3 3 4 5 6 6 7
10 4 2 2 4 5 3 2 4 4 3 4 4 3 2 3 2 3 3 1 2 1 1 3 5 5 6 6 7 5 6 6 6 6 7 8 6 4 6 8 9 9 10 11 11 10 9 6 5 6 7 7 7 7 7 8 8 8 8 7 8 7 6 4 4 3 3 3 3 2 1 0 1 2 3 3 4 3 1 3 2 4 3 5 6 6 7
1 4 2 3 5 8 6 4 4 1 1 3 4 4 4 4 5 4 4 4 3 4 3 0 2 2 4 4 5 6 4 4 5 6 6 6 6 7 9 8 9 11 10 11 10 10 9 6 6 7 7 7 7 7 7 7 8 9 9 7 6 6 5 5 5 3 3 2 2 2 1 2 4 3 2 2 1 3 3 4 3 2 2 3 4 3 4
4 8 5 7 7 3 1 3 2 4 3 5 6 4 5 4 3 2 2 2 2 1 2 1 2 3 3 3 4 4 5 6 6 6 7 6 7 7 5 6 7 7 8 11 12 11 8 7 7 8 8 7 6 6 5 6 7 9 9 8 6 6 5 5 4 3 3 2 1 2 3 5 4 4 7 5 2 1 3 4 4 7 6 2 3 4 4
9 2 2 1 6 8 4 3 1 1 1 5 9 6 5 3 2 2 3 1 1 2 2 1 2 1 2 3 4 4 4 6 6 8 9 10 9 8 8 9 8 9 9 8 9 9 9 8 8 8 8 7 7 6 6 6 7 8 8 8 7 6 6 5 5 4 3 3 2 4 3 3 3 4 5 6 6 7 5 6 6 6 6 6 10 11 9
4 0 3 4 4 7 4 2 2 2 1 6 8 4 3 3 3 3 4 4 5 4 4 4 3 1 1 3 5 6 4 4 5 6 5 5 6 7 7 9 10 11 11 11 12 12 9 9 9 8 8 7 6 6 6 6 6 7 7 8 9 7 6 5 5 4 3 3 3 3 1 2 5 6 6 4 3 6 8 7 7 6 5 10 11 12 15
6 3 4 5 10 8 4 6 4 3 1 4 7 4 3 3 2 2 6 5 4 4 4 4 4 1 1 3 5 6 6 5 6 7 7 6 6 8 8 7 11 13 12 10 8 8 9 9 9 8 8 7 6 6 6 6 6 7 7 7 7 7 6 5 5 4 3 3 2 2 3 5 5 5 4 2 2 1 4 6 4 3 6 9 12 14 16
9 4 5 5 6 5 4 4 5 4 3 3 4 1 2 4 4 6 5 3 2 1 1 1 2 3 0 3 4 3 4 5 6 7 7 8 6 6 10 12 9 4 6 7 8 9 9 9 9 9 9 8 7 6 6 6 6 6 6 6 6 7 7 6 6 5 4 3 3 3 4 5 4 2 0 0 1 1 1 1 2 4 5 8 10 13 14
6 6 8 9 8 4 3 4 2 1 2 3 6 4 3 3 5 4 2 1 1 0 1 1 2 2 1 1 3 3 6 3 4 6 6 7 10 10 5 3 4 4 5 6 7 8 9 9 9 9 9 7 7 6 6 6 7 6 6 6 6 5 7 5 5 5 4 4 4 4 4 3 1 1 0 0 1 1 2 3 3 4 4 4 6 11 10
7 2 3 4 3 2 2 1 3 3 2 3 3 4 3 3 2 1 1 1 2 2 1 1 0 0 1 1 3 1 2 5 8 6 6 7 3 3 4 5 5 5 5 5 6 7 8 8 9 9 8 7 7 7 7 7 7 7 7 7 6 6 5 5 5 4 4 4 4 5 5 2 3 1 1 0 1 1 2 1 2 3 2 2 3 6 9
4 3 1 4 5 4 4 4 3 2 1 2 4 3 2 1 2 3 4 3 2 1 3 3 0 0 2 3 2 4 4 3 4 6 6 4 5 5 6 7 6 5 6 5 5 7 8 8 9 10 9 8 8 7 7 8 7 7 7 7 7 6 6 5 5 4 5 5 5 4 3 4 3 1 1 1 1 0 2 1 2 2 4 5 4 2 3
4 3 6 5 7 8 7 3 4 4 3 2 2 0 0 0 2 4 4 5 2 3 4 1 1 2 1 3 5 5 6 7 6 4 4 5 6 7 7 8 7 4 3 6 10 10 10 10 11 12 10 8 9 8 8 7 7 7 7 8 7 7 7 7 7 6 6 6 5 5 4 2 1 1 1 0 0 0 1 1 3 4 6 6 6 7 8
3 3 5 5 6 4 5 5 3 3 3 3 3 2 2 2 3 4 6 5 2 5 4 2 3 4 4 5 3 2 1 2 3 4 4 5 7 8 9 11 12 13 14 14 11 9 10 9 9 9 7 8 9 9 9 8 7 7 6 5 5 8 10 10 7 6 6 6 5 4 2 2 1 3 2 1 0 0 1 1 2 4 5 5 6 6 6
6 5 6 3 2 1 0 0 1 3 4 2 3 4 6 5 6 7 6 5 6 4 2 1 3 7 6 2 1 2 2 2 3 3 4 4 6 7 9 10 9 5 3 5 7 9 9 8 10 7 6 9 9 9 8 8 8 6 6 6 6 7 9 12 7 6 5 5 4 4 5 3 2 2 1 1 0 0 0 1 2 2 3 4 5 5 6
5 1 1 1 0 1 2 3 3 5 5 4 7 7 5 4 4 5 5 5 5 3 2 5 6 4 2 2 3 2 2 2 2 3 4 6 6 6 6 6 6 3 1 4 7 8 9 11 9 6 9 10 9 9 9 9 8 8 6 7 7 7 7 8 6 6 5 5 5 4 4 4 4 3 2 2 1 1 0 1 1 1 3 4 5 5 5
8 7 7 6 6 6 5 7 5 5 5 4 4 4 4 5 4 4 4 4 3 5 6 6 3 1 3 3 4 4 4 3 2 6 9 7 6 6 6 6 5 4 2 3 5 7 8 8 6 8 9 10 9 8 7 7 6 6 7 6 7 8 7 6 6 5 5 5 6 5 5 5 3 2 3 2 1 1 2 1 2 2 2 3 4 4 7
6 6 5 5 2 1 0 2 3 4 4 4 5 4 4 5 4 5 3 2 4 5 4 2 2 2 3 3 4 5 6 8 9 7 7 8 7 7 5 6 5 4 4 5 7 8 8 8 8 9 10 9 8 7 7 8 7 7 10 9 9 7 6 7 6 6 6 5 4 5 4 4 3 3 4 2 1 2 1 2 1 2 1 3 5 4 5
0 1 1 2 2 1 2 1 1 1 2 3 4 4 4 4 3 3 4 4 3 3 4 2 2 3 3 4 5 6 9 10 9 8 6 6 7 6 7 7 8 8 9 9 9 8 8 9 11 9 7 7 7 8 7 7 7 6 8 7 6 6 6 6 6 5 5 5 4 5 4 5 4 5 3 2 1 1 1 1 2 2 2 3 3 4 4
3 3 3 3 3 4 3 2 1 1 1 0 1 2 4 4 3 4 3 4 4 4 3 1 2 3 7 8 8 7 7 8 7 7 4 3 5 6 7 8 7 10 8 11 12 11 10 9 11 14 9 7 8 8 9 11 6 5 5 7 6 7 7 6 6 6 5 4 5 4 6 5 3 1 3 1 1 1 1 2 4 3 2 3 3 3 5
5 7 6 5 4 5 5 5 5 5 4 6 5 4 4 4 5 5 5 4 4 5 3 3 5 7 5 3 4 8 9 6 5 4 3 6 7 9 8 9 10 7 9 15 3 11 10 11 16 12 8 8 7 7 11 13 9 7 7 7 8 8 7 7 7 7 6 5 7 6 4 4 4 3 2 1 2 2 3 3 3 3 4 3 3 3 4
7 6 7 6 4 6 5 4 5 5 7 6 5 4 4 7 6 6 6 5 5 5 4 4 4 4 5 5 7 7 7 5 5 5 6 8 7 10 13 14 13 14 10 2 7 7 9 11 12 10 8 5 7 7 10 13 12 6 5 6 8 6 5 7 7 7 7 6 5 5 5 3 3 3 3 3 3 3 5 5 3 5 4 4 3 4 4
5 6 5 5 6 5 5 5 4 4 4 3 3 3 4 5 5 5 6 6 5 5 5 4 3 5 6 6 7 9 7 6 6 6 7 6 6 8 9 10 10 5 2 4 5 7 10 13 11 8 8 6 6 6 7 10 9 5 5 5 6 5 5 6 6 6 6 6 6 6 5 6 4 4 4 4 3 4 4 4 3 5 4 3 3 4 5
5 5 5 5 4 4 4 5 4 3 3 4 4 4 4 4 4 4 5 6 7 7 7 5 5 7 7 7 8 8 5 4 5 7 6 5 5 9 8 13 3 8 8 6 6 7 12 12 10 9 7 6 6 7 6 10 8 5 4 4 4 5 6 6 6 6 7 7 8 6 6 6 4 4 5 3 4 4 4 4 4 4 4 4 4 4 4
6 5 4 5 4 5 5 4 3 1 1 2 2 4 4 4 4 4 5 4 6 5 6 6 6 7 7 6 6 6 5 4 4 6 8 11 11 8 8 12 3 6 9 10 9 8 8 9 9 7 9 7 7 10 9 8 6 6 5 5 4 5 6 6 5 5 5 5 5 5 5 5 5 5 4 5 5 5 4 4 4 4 4 4 4 5 5
6 6 5 5 5 5 6 6 5 5 4 1 2 3 4 3 3 3 3 3 4 4 4 5 5 7 6 6 6 8 7 2 3 5 5 9 7 5 8 3 1 2 10 7 7 7 7 7 7 7 10 10 9 15 13 7 7 7 6 5 4 4 4 4 4 4 4 4 4 4 4 5 5 5 6 6 6 6 4 5 7 6 5 4 6 5 6
5 5 5 6 5 5 4 5 6 5 6 5 4 5 4 3 2 2 3 4 4 4 5 6 5 5 5 5 5 6 6 3 4 4 4 8 7 7 2 2 2 5 10 7 7 7 7 7 7 9 13 13 15 17 9 7 7 7 6 6 5 4 5 4 5 5 5 5 4 4 5 6 6 6 5 6 6 6 5 6 6 5 6 5 6 7 6
5 4 4 5 4 4 4 5 6 8 7 7 6 6 3 3 4 3 3 4 4 5 4 4 5 5 5 5 5 6 5 4 5 5 5 7 8 8 4 5 5 5 7 7 6 6 6 6 8 10 11 15 16 14 7 6 6 6 6 6 6 5 6 5 6 6 5 5 4 4 5 6 6 6 6 6 6 6 6 6 6 5 5 6 6 7 5
4 5 4 5 6 5 5 4 5 4 5 6 5 3 2 4 5 5 4 4 5 5 4 5 4 5 5 5 6 5 3 2 3 5 6 4 6 3 2 6 5 5 9 9 5 5 5 7 11 11 13 14 14 9 6 6 5 6 5 6 6 7 7 7 6 6 6 5 5 5 6 6 6 6 5 6 6 6 6 7 7 5 6 7 6 6 5
5 5 6 5 6 5 6 4 4 3 4 5 6 6 5 5 5 4 4 5 4 4 4 4 5 5 4 4 4 5 5 5 5 4 5 3 1 2 4 6 7 9 9 7 6 6 6 8 10 12 14 14 12 5 6 5 6 5 5 6 6 4 4 5 6 5 5 5 5 6 6 7 6 6 6 5 6 7 6 5 6 6 6 7 5 6 5
5 5 7 8 9 9 6 5 5 6 5 6 5 6 6 5 5 5 4 4 4 3 3 3 4 4 5 5 4 3 2 3 7 6 4 4 1 3 4 5 5 8 8 6 5 4 8 9 12 13 12 11 7 5 5 5 5 4 5 5 6 5 5 4 6 6 5 5 5 5 6 6 6 6 6 6 7 7 6 6 6 6 5 5 6 5 4
4 5 7 8 5 7 6 5 5 6 5 5 5 6 6 7 5 6 6 5 6 5 3 4 4 4 3 4 3 3 5 4 4 5 1 4 3 3 4 4 7 8 6 5 5 3 8 10 11 11 11 9 5 5 4 5 5 4 4 5 5 4 4 5 5 5 5 5 5 6 6 6 6 6 6 7 7 6 7 6 7 6 6 5 4 6 4
5 4 5 5 4 5 5 6 6 6 6 6 6 6 6 6 7 7 4 3 4 4 2 3 3 3 3 3 3 4 4 5 5 2 2 3 3 3 3 5 6 5 4 5 4 4 6 9 8 7 6 4 4 4 4 5 4 4 4 3 4 3 5 6 3 5 6 5 5 5 6 6 6 6 7 6 6 6 6 7 6 7 7 7 6 4 4
5 4 5 6 4 5 5 5 6 6 5 5 5 6 5 4 6 7 6 5 3 4 5 4 3 3 2 2 3 3 4 4 3 3 1 2 3 3 2 2 3 2 3 4 3 3 3 4 4 4 4 3 3 4 4 4 4 4 3 4 4 5 5 5 6 6 6 6 5 6 6 6 6 6 6 6 6 6 7 7 7 6 6 6 5 5 5
6 5 5 6 5 6 5 6 5 3 3 3 3 4 4 5 5 6 5 5 4 4 5 4 6 3 1 0 1 2 2 3 2 3 2 3 3 3 2 3 2 2 2 2 2 2 2 2 2 2 3 4 3 4 3 3 3 4 5 4 4 5 5 5 5 5 5 5 6 6 6 6 6 6 6 6 6 7 7 7 7 6 5 5 5 5 5
Wind_Direction
121 137 158 166 169 182 190 191 188 181 182 163 182 213 221 132 187 222 236 215 224 231 206 222 216 189 197 199 204 203 185 144 130 148 162 170 173 172 177 184 178 171 172 169 162 162 159 153 151 150 145 140 131 122 123 127 123 125 127 118 113 111 106 105 108 107 98 89 82 76 68 61 52 43 35 26 21 20 27 17 360 327 294 294 316 320 312
139 359 164 177 172 198 185 197 196 191 180 189 196 210 214 192 207 219 232 230 236 226 214 231 235 210 205 199 116 103 141 178 176 168 173 180 184 186 189 187 183 178 172 167 167 164 163 162 158 154 149 148 149 144 141 135 127 137 122 120 118 114 112 116 115 107 101 94 88 76 63 57 49 39 31 16 15 13 10 4 338 313 315 321 336 324 325
282 325 29 137 194 173 198 213 202 187 191 202 207 213 223 214 249 258 280 299 279 243 195 231 261 223 96 105 172 196 197 171 169 178 187 192 196 199 195 182 181 178 171 172 170 171 172 168 162 154 154 153 148 144 144 141 137 138 125 121 116 121 120 121 116 109 104 102 94 86 83 64 48 35 18 13 18 11 1 345 321 315 324 332 326 322 316
251 356 21 67 75 90 169 201 182 188 186 201 214 215 217 190 214 232 247 261 254 256 140 217 217 151 168 194 205 205 186 178 179 186 195 200 204 200 195 187 178 179 180 180 181 178 173 167 162 159 158 157 154 156 153 145 140 131 123 123 124 121 120 116 109 107 107 102 95 97 87 71 57 34 25 24 14 358 338 327 311 319 333 319 319 318 318
262 306 53 107 67 37 307 246 209 195 198 200 209 226 226 207 202 215 218 233 238 212 170 224 211 156 206 220 204 206 209 194 188 192 198 205 205 202 194 186 188 189 189 187 181 171 166 169 169 173 161 157 164 158 148 150 134 128 128 127 125 120 119 115 113 110 106 104 104 94 82 71 58 40 33 18 356 340 316 297 310 329 319 327 312 310 298
198 318 30 71 105 210 228 243 150 165 188 194 192 218 221 226 187 216 218 234 245 142 193 226 208 189 205 212 217 195 189 189 202 212 209 209 206 204 198 194 193 193 183 178 178 176 173 172 169 161 166 156 150 148 142 139 134 133 131 128 124 125 120 119 120 116 113 109 103 90 73 59 51 39 27 353 316 301 301 319 332 322 320 313 300 295 286
181 65 56 51 223 240 251 34 167 187 187 179 200 217 214 216 214 230 253 268 263 192 208 217 221 206 219 219 215 219 222 187 186 197 207 211 208 198 195 195 193 188 183 173 165 169 174 170 159 147 147 148 142 141 144 136 138 134 133 129 125 128 125 128 122 117 115 111 99 82 66 58 51 36 10 337 328 312 312 310 318 313 309 310 297 290 289
53 84 139 210 232 251 333 271 239 189 174 203 201 251 259 253 219 217 235 241 241 223 225 238 244 224 236 273 266 238 220 193 190 194 207 211 199 199 200 197 192 178 176 179 179 177 157 151 157 159 154 153 145 146 143 139 138 136 134 130 130 129 128 129 127 126 118 111 97 82 69 58 56 20 349 323 307 308 315 316 311 301 295 280 281 296 298
180 181 188 227 346 318 280 257 215 155 181 143 166 229 250 222 204 196 220 235 239 239 228 232 252 255 105 210 264 242 208 219 220 203 208 204 199 203 204 193 189 185 177 165 157 143 151 156 156 159 154 150 145 141 142 145 137 137 134 135 138 136 135 130 125 123 117 111 96 81 78 68 45 357 333 317 313 311 330 308 299 289 275 277 278 293 309
139 125 142 2 266 258 247 214 177 162 168 168 170 178 264 217 208 203 213 230 235 232 215 222 210 141 164 264 257 245 217 210 216 229 248 317 237 213 148 126 129 140 146 138 141 149 150 156 156 148 152 151 148 146 147 146 141 140 140 143 142 137 135 131 122 118 112 106 100 83 78 78 33 322 307 303 281 288 293 296 295 277 279 286 289 291 304
131 138 175 195 209 236 238 143 176 169 147 139 123 116 259 229 183 200 204 226 235 213 189 213 131 129 208 234 242 239 206 230 231 221 240 221 192 174 169 162 157 156 157 154 150 146 149 156 165 160 157 154 149 149 150 149 145 144 148 147 144 140 136 127 117 110 107 97 92 86 76 53 11 298 290 275 276 292 277 266 269 280 289 299 309 313 314
186 180 193 215 208 252 225 192 175 179 147 119 111 186 255 218 165 196 198 211 224 207 205 167 169 176 214 233 246 220 208 190 182 195 191 170 148 135 141 151 155 147 135 130 148 160 168 170 158 158 155 155 154 151 153 148 148 152 152 146 133 122 119 115 110 99 96 89 79 88 84 10 321 280 270 294 290 273 275 260 271 287 287 306 329 330 329
185 172 236 311 281 276 219 222 238 147 146 123 150 216 233 230 227 326 137 208 221 201 164 161 183 218 212 224 211 41 123 97 60 43 64 93 130 148 151 147 138 145 159 163 169 172 168 155 155 157 157 153 156 155 149 149 153 148 138 127 121 119 115 109 103 97 83 89 83 66 108 195 267 287 291 280 282 277 276 283 289 317 351 350 343 337 340
186 191 173 230 253 235 173 296 159 167 111 198 206 223 208 150 188 247 194 192 192 150 182 183 216 189 138 73 41 70 61 107 109 93 102 96 76 56 81 128 142 143 147 143 134 134 147 154 154 158 157 155 151 150 148 148 143 132 125 120 117 115 112 107 106 101 95 69 91 138 292 24 315 296 285 269 268 276 287 321 1 5 355 357 347 334 335
84 121 195 156 248 270 117 107 74 253 183 232 205 153 300 208 198 149 109 154 207 155 190 207 185 109 92 80 88 77 103 113 130 134 133 135 139 138 136 133 148 144 141 145 146 141 140 147 152 157 152 148 147 145 142 142 132 125 117 118 115 114 111 111 108 102 97 111 95 142 249 261 199 256 263 262 279 273 352 14 24 13 3 352 348 337 331
171 171 190 209 211 130 194 143 193 188 194 197 150 130 119 215 171 150 104 5 210 188 161 156 127 140 125 83 106 94 79 103 100 111 111 115 121 126 121 135 144 141 129 128 127 119 121 129 143 150 152 145 143 139 141 138 125 118 117 117 118 115 118 114 107 114 117 126 216 244 224 264 243 234 271 264 297 23 25 31 26 12 358 349 345 347 342
163 196 212 231 225 166 170 43 327 139 108 73 163 121 132 141 141 207 99 136 320 172 128 124 137 130 203 174 178 157 179 170 172 166 173 165 160 156 149 148 140 139 145 142 133 120 109 112 125 139 147 143 139 143 151 140 139 134 129 125 123 124 124 125 125 141 114 170 163 8 274 216 229 244 276 286 12 356 39 31 31 16 344 349 348 336 332
207 275 195 166 72 194 84 22 5 106 73 35 82 90 94 35 123 246 157 171 128 124 140 117 185 170 172 162 192 192 177 174 167 129 113 116 112 117 118 122 127 122 116 120 129 130 105 86 106 121 138 151 149 156 143 140 135 132 128 126 127 129 129 131 155 159 145 143 130 236 275 260 246 256 340 356 30 24 40 30 20 2 340 347 342 338 327
166 242 198 170 184 181 115 98 60 56 68 51 108 106 112 149 140 89 71 150 203 178 135 142 165 182 172 178 184 177 167 174 169 166 161 153 159 153 152 149 131 131 136 138 145 144 142 121 116 113 119 104 118 134 141 135 132 130 127 128 130 132 142 154 161 144 136 150 188 236 242 253 261 311 6 23 41 35 34 20 356 347 345 341 339 337 329
184 234 229 96 50 78 69 85 86 47 31 33 34 71 113 117 107 85 26 17 40 26 79 150 143 173 186 167 181 180 187 176 171 167 166 160 146 156 143 146 143 141 151 153 155 155 153 151 132 124 119 126 133 133 133 133 134 130 131 137 139 144 155 153 142 136 153 164 170 207 219 188 48 17 15 46 46 15 350 308 321 330 339 336 334 333 327
315 23 64 128 76 43 28 31 44 75 175 128 63 44 46 36 47 22 15 35 352 28 9 53 115 139 210 205 182 175 169 166 169 175 164 168 159 150 155 161 161 162 162 158 161 156 152 150 139 132 129 129 135 137 137 139 139 135 137 136 137 145 148 128 137 141 165 180 186 176 112 47 37 26 6 355 351 306 263 205 203 225 297 320 307 286 304
197 197 192 164 134 195 119 22 12 26 46 113 104 80 63 59 58 25 45 3 340 79 53 76 161 196 212 201 164 177 181 181 173 161 163 164 162 162 159 151 157 153 160 160 159 158 154 154 151 145 141 138 135 131 135 139 138 140 141 140 142 146 138 136 159 160 168 176 156 86 72 62 46 20 8 13 357 331 289 316 343 347 355 331 314 340 353
212 209 226 168 116 100 143 128 33 25 49 95 89 84 96 98 129 140 116 110 42 26 355 104 125 168 173 199 160 165 178 191 184 177 167 167 172 171 158 154 165 164 162 158 154 155 161 159 159 153 147 144 141 143 144 147 146 147 145 142 142 143 144 161 167 167 164 136 105 73 70 89 92 69 28 5 15 22 24 15 350 345 350 17 18 4 354
59 178 157 167 128 137 143 145 136 103 131 101 96 115 136 134 131 148 132 105 69 16 2 4 34 77 170 178 166 187 190 175 167 178 182 175 172 163 170 174 169 164 167 170 174 170 162 164 160 155 149 151 151 150 148 145 150 152 156 152 154 161 159 167 156 152 145 120 99 101 116 87 69 66 67 62 3 28 24 345 333 343 40 29 7 356 350
152 188 128 97 100 103 125 138 127 104 136 134 119 138 168 151 154 117 83 65 58 53 29 347 335 354 168 184 181 184 182 189 184 175 169 165 163 170 181 177 185 185 181 172 162 159 163 164 159 155 154 158 157 156 153 153 154 158 159 152 150 155 162 158 153 142 127 121 136 171 108 67 53 62 86 126 150 295 344 5 22 39 30 4 355 350 346
116 101 94 90 91 106 154 120 65 60 40 92 106 104 23 52 47 62 60 78 58 40 56 324 312 323 191 176 189 177 155 179 173 156 161 172 169 172 197 202 189 155 154 157 158 161 166 168 161 159 164 169 165 161 153 152 150 156 153 153 158 157 160 159 149 146 145 159 165 120 91 80 78 80 346 158 67 69 57 14 41 5 351 341 338 343 342
92 131 103 71 69 46 31 96 140 165 103 68 95 108 82 49 55 69 64 75 145 224 236 259 256 276 356 172 146 170 181 162 141 179 182 181 191 199 180 116 142 151 148 153 161 170 170 165 162 168 172 174 164 161 154 146 142 140 144 147 154 160 156 151 149 152 160 167 134 100 91 97 126 194 202 293 7 20 18 20 359 345 319 309 324 338 343
127 141 92 132 164 175 192 108 101 110 68 69 95 106 117 84 58 63 359 339 304 289 295 281 17 284 205 250 140 115 115 167 191 189 189 203 173 115 126 131 128 141 152 158 169 172 175 172 169 170 179 177 168 160 151 145 144 148 154 161 162 165 161 158 159 163 162 141 114 113 123 168 192 190 164 151 80 7 358 357 341 322 292 299 299 315 346
152 155 94 122 147 130 102 94 71 76 65 28 55 74 92 35 353 344 313 270 248 276 297 292 321 208 213 238 181 191 198 200 202 206 197 151 132 128 125 131 132 138 152 167 178 184 181 179 176 180 189 177 166 160 151 150 155 162 166 170 168 168 165 164 165 168 146 124 116 143 164 186 170 155 159 159 146 77 18 353 326 318 319 320 320 317 356
150 135 108 104 115 124 117 138 187 206 206 186 132 69 151 124 329 299 280 288 266 260 258 212 265 269 193 204 219 203 202 213 211 177 151 149 143 142 141 131 115 104 139 191 200 190 189 188 186 191 187 170 166 161 156 160 168 173 174 175 176 171 165 164 164 155 139 140 158 158 157 163 166 153 168 160 156 80 22 345 336 342 336 332 337 339 343
103 79 101 114 119 139 158 193 194 196 195 183 178 166 247 208 229 268 278 279 290 264 279 231 230 253 250 228 230 199 161 158 159 156 146 149 159 164 162 161 165 192 202 205 189 185 190 194 197 200 178 166 166 165 165 169 171 169 172 167 169 166 163 157 157 153 148 147 156 146 158 161 179 163 171 155 98 69 11 341 335 326 321 322 328 334 329
100 86 82 75 93 144 203 53 157 224 223 188 158 213 219 197 220 233 248 262 251 238 248 220 239 243 245 233 176 172 144 113 113 124 147 164 180 188 186 196 211 213 185 159 174 186 188 188 205 200 160 168 170 172 172 174 171 169 176 167 165 170 171 168 158 159 151 158 158 153 163 162 198 172 145 128 151 175 242 338 321 308 307 319 322 317 320
118 87 351 283 310 348 297 268 201 252 236 212 217 230 240 233 230 240 241 249 284 293 250 245 248 255 212 168 157 135 121 98 99 135 182 204 206 198 200 207 217 206 174 190 177 181 186 198 201 164 168 175 178 179 181 179 177 175 172 170 174 173 173 169 159 151 152 160 166 171 178 181 189 157 156 151 161 152 184 241 260 269 295 299 295 302 308
172 191 198 193 174 202 221 248 227 235 262 252 247 261 273 267 250 260 269 283 292 292 275 267 282 193 158 155 158 145 131 127 194 230 223 218 208 201 199 200 204 208 217 184 174 183 194 196 177 175 175 174 177 179 182 182 180 180 172 162 164 165 158 151 154 148 159 176 181 183 179 184 171 160 154 147 155 167 207 216 237 265 285 293 292 296 311
177 201 194 207 220 246 201 209 210 210 228 261 287 274 247 260 259 255 257 253 248 249 254 251 226 155 142 148 164 180 185 209 227 229 222 208 208 193 176 178 189 201 219 213 202 206 193 184 174 172 175 174 176 179 180 182 179 172 171 164 159 158 155 154 156 170 178 183 167 168 184 177 179 158 153 155 170 191 203 220 239 254 263 290 294 303 309
86 277 31 49 57 100 104 143 186 201 193 207 235 260 277 270 273 282 276 252 259 268 263 219 147 133 158 180 202 207 215 227 232 234 222 201 185 159 169 183 196 209 223 240 224 199 184 184 176 161 153 170 172 180 180 178 180 177 162 158 151 151 154 163 164 175 174 167 173 190 191 186 169 156 153 159 174 183 201 241 249 244 250 260 270 287 288
40 98 93 78 55 74 80 77 63 78 35 290 307 313 314 316 310 295 322 327 322 302 279 142 134 179 218 220 219 228 227 229 228 232 219 150 146 162 180 197 197 214 214 242 229 179 190 178 164 162 165 175 180 182 181 178 175 163 154 160 162 159 154 161 177 173 182 178 184 194 191 166 144 141 147 153 182 212 217 232 244 254 251 256 261 271 284
55 66 65 58 36 52 51 28 16 36 32 29 6 356 345 340 346 351 335 333 332 319 288 200 218 232 244 239 230 235 240 234 233 223 168 163 168 173 195 193 211 190 211 230 152 158 186 167 161 167 172 180 178 175 179 176 168 168 172 167 157 155 162 174 173 174 176 188 187 188 182 167 159 167 182 181 205 216 229 233 244 252 258 259 260 263 266
30 22 33 20 42 46 35 16 21 36 48 46 353 336 354 4 344 350 337 329 320 322 310 264 259 258 247 228 243 249 246 237 222 205 195 189 186 184 211 212 212 206 209 112 145 172 161 165 176 177 180 167 156 163 176 176 175 170 164 158 158 165 168 174 173 174 176 183 183 187 175 168 171 176 191 206 210 217 222 234 239 251 252 257 260 269 272
42 31 10 4 22 17 28 24 32 30 5 18 44 6 339 2 346 339 319 320 319 341 329 302 267 252 254 242 248 258 248 221 215 201 203 189 190 224 256 265 244 230 199 138 151 158 169 167 174 181 182 158 146 164 170 175 177 163 163 163 170 176 175 170 167 173 181 184 194 190 176 182 184 190 192 198 206 217 224 238 244 251 253 259 257 264 275
33 13 3 13 8 13 15 8 3 351 359 22 18 0 11 14 343 344 318 316 315 328 318 304 276 269 261 255 253 261 264 217 196 204 182 153 196 223 228 256 217 164 194 174 168 169 169 173 174 175 178 156 144 157 150 168 169 168 168 169 184 187 174 177 179 180 187 194 194 188 186 185 188 193 198 202 214 223 230 237 239 243 244 254 268 271 271
5 7 3 6 2 357 349 339 339 26 30 4 44 46 3 336 333 304 298 300 302 305 307 300 278 270 286 294 294 285 271 229 197 200 185 194 206 200 218 252 134 167 173 164 165 161 169 175 175 165 166 155 154 162 160 161 165 167 169 178 185 186 176 175 181 193 205 206 198 186 187 188 193 204 207 208 220 227 232 235 243 245 245 247 258 261 265
2 5 360 354 346 345 345 341 344 333 332 355 67 0 314 296 291 297 304 303 303 305 304 298 301 298 294 290 285 278 268 234 213 221 231 246 239 231 234 321 32 161 160 158 159 163 170 179 177 183 170 159 161 166 166 162 167 171 173 174 178 176 169 157 165 192 204 206 202 199 202 210 210 210 211 214 221 224 226 231 238 243 243 243 250 252 255
345 353 355 351 340 326 326 327 331 339 340 336 350 326 318 320 323 332 326 322 317 315 314 314 311 302 295 287 282 274 268 221 224 229 222 265 277 264 198 161 185 173 168 164 165 169 174 176 180 173 166 160 164 166 166 159 166 167 168 168 174 170 162 165 170 187 207 214 205 206 209 217 219 220 213 218 221 226 227 232 235 239 248 247 246 247 249
342 336 332 322 318 331 339 344 341 331 316 311 317 317 333 8 347 338 335 328 319 308 311 305 307 303 298 289 273 265 279 244 210 176 207 250 264 265 168 161 172 176 179 169 167 169 174 175 164 157 165 167 165 162 161 159 164 162 166 167 171 166 168 164 181 195 202 208 213 214 216 225 225 221 220 223 218 222 228 228 234 235 239 248 247 247 249
319 319 323 333 339 335 321 316 300 300 306 311 311 316 344 356 343 335 329 324 317 306 297 291 293 289 288 284 279 282 314 302 252 227 229 222 229 293 141 158 178 175 179 173 171 171 173 162 163 160 165 168 167 163 165 168 169 165 167 164 161 154 164 162 182 197 200 198 204 208 221 225 223 227 223 223 229 232 238 233 236 236 229 237 242 244 246
318 324 330 328 312 307 314 313 304 311 316 337 343 334 332 338 330 325 312 301 291 288 296 299 304 299 306 282 278 284 288 291 286 247 232 251 213 206 173 166 174 174 178 175 183 174 174 162 167 164 168 171 168 164 170 173 175 173 163 165 161 157 165 166 185 202 203 203 202 213 222 221 223 227 229 230 232 233 233 236 241 242 239 241 244 250 259
324 317 314 319 314 310 325 333 354 351 343 326 308 312 311 317 321 309 304 314 317 331 342 333 328 326 338 344 341 335 286 269 285 280 175 198 207 167 177 168 181 181 177 174 171 165 151 151 165 167 168 166 169 167 169 179 175 177 167 169 170 171 166 173 186 194 202 208 208 211 221 226 229 223 223 225 234 233 234 233 240 243 239 237 240 242 247
302 294 293 305 316 334 348 340 339 330 317 320 335 314 312 321 318 323 312 316 333 333 325 325 321 322 330 341 338 328 310 298 249 283 34 152 191 180 190 170 167 167 163 157 147 133 158 161 164 168 169 169 167 171 173 182 180 171 182 181 179 172 166 187 206 199 201 209 212 213 221 224 228 220 230 232 235 234 235 237 239 236 240 238 246 247 247
302 312 325 318 319 324 321 322 312 294 300 317 308 305 313 323 326 312 312 312 295 283 306 306 314 313 321 324 323 317 316 316 314 286 189 185 174 155 151 110 150 151 123 118 127 135 154 155 159 165 173 172 174 173 184 191 183 177 178 185 183 181 197 192 202 204 208 214 215 219 223 224 226 226 229 229 235 237 236 237 238 239 240 243 243 246 243
308 309 295 289 287 283 276 260 262 281 297 292 292 294 305 307 292 293 302 287 289 289 285 282 287 275 289 314 330 328 335 332 334 337 349 40 64 55 55 64 79 107 106 93 109 139 146 152 161 163 165 168 169 187 194 199 186 179 188 187 197 182 170 204 206 212 213 210 213 220 225 228 227 232 233 235 236 239 236 237 237 236 235 240 242 248 251
280 270 273 275 272 270 273 284 284 275 270 293 303 306 307 293 293 294 293 285 265 263 270 277 296 287 162 317 341 344 340 357 352 24 47 41 50 62 59 69 74 77 109 126 136 131 140 163 137 143 170 186 189 198 196 182 188 194 206 212 206 212 211 211 210 215 217 213 215 223 224 226 223 230 237 233 232 235 238 236 237 236 235 236 237 242 249